[[[{"header":{"parameterUnit":"kt","parameterCategory":2,"dx":1,"dy":1,"la1":30.253999710083008,"la2":30.299108505249023,"lo1":-89.0895004272461,"lo2":-89.04439544677734,"nx":28,"ny":28,"refTime":"2022-10-20T21:00:00:Z","depth":"0","parameterNumber":2,"parameterNumberName":"U-component_of_CURRENTS"},"data":[-0.3149,-0.3051,-0.3091,-0.2738,-0.2754,-0.2409,-0.2272,-0.1929,-0.1688,-0.1121,-0.0815,-0.0908,-0.1469,-0.1855,-0.2151,-0.2251,-0.2206,-0.219,-0.2259,-0.237,-0.2399,-0.2426,-0.2422,-0.2145,-0.2144,-0.1854,-0.1851,-0.1848,-0.3341,-0.3387,-0.3521,-0.354,-0.3459,-0.3724,-0.3742,-0.3432,-0.2907,-0.2813,-0.2527,-0.2387,-0.2483,-0.2806,-0.2883,-0.2874,-0.2892,-0.2803,-0.2571,-0.2598,-0.2946,-0.2961,-0.2794,-0.2794,-0.2794,-0.2794,-0.2794,-0.2794,-0.3673,-0.3715,-0.3836,-0.3981,-0.4159,-0.4187,-0.4078,-0.4132,-0.395,-0.3532,-0.3943,-0.3554,-0.3859,-0.3642,-0.3656,-0.3456,-0.3457,-0.3211,-0.3139,-0.3078,-0.3086,-0.3585,-0.3479,-0.3481,-0.3483,-0.3484,-0.3485,0,-0.3843,-0.3931,-0.4071,-0.4272,-0.4437,-0.4606,-0.4743,-0.4758,-0.4803,-0.4704,-0.454,-0.4491,-0.4507,-0.4193,-0.4037,-0.3818,-0.3471,-0.3574,-0.3425,-0.3097,-0.3039,-0.3014,-0.3457,-0.3327,-0.3328,-0.3329,-0.3329,-0.3329,-0.3988,-0.4055,-0.4348,-0.4452,-0.4561,-0.4734,-0.4838,-0.495,-0.4947,-0.4927,-0.4877,-0.4823,-0.4708,-0.4398,-0.4123,-0.3818,-0.3689,-0.3591,-0.3557,-0.3459,-0.3364,-0.3297,-0.3297,-0.3339,-0.3338,-0.3337,-0.3336,0,-0.4047,-0.4199,-0.4335,-0.4557,-0.4655,-0.4725,-0.4899,-0.492,-0.4935,-0.4909,-0.4901,-0.4826,-0.4641,-0.4431,-0.4128,-0.3978,-0.3637,-0.3696,-0.3611,-0.3578,-0.3468,-0.3408,-0.3171,-0.3158,-0.3644,-0.3645,-0.3647,0,-0.4177,-0.4245,-0.4477,-0.454,-0.4674,-0.474,-0.4818,-0.4831,-0.4836,-0.4804,-0.4754,-0.4696,-0.4479,-0.432,-0.4084,-0.388,-0.382,-0.3746,-0.3716,-0.3604,-0.3605,-0.3447,-0.3379,-0.3609,-0.361,-0.3611,-0.3612,0,-0.4194,-0.4353,-0.4471,-0.4519,-0.4658,-0.4704,-0.4757,-0.4739,-0.4747,-0.4709,-0.4708,-0.4529,-0.4479,-0.4268,-0.4044,-0.4035,-0.3796,-0.3749,-0.3738,-0.3743,-0.3595,-0.3593,-0.3372,-0.3613,-0.3613,-0.3614,-0.3614,0,-0.4241,-0.4344,-0.4469,-0.4586,-0.4619,-0.4658,-0.4706,-0.4718,-0.4665,-0.4644,-0.4569,-0.4491,-0.4337,-0.4294,-0.4029,-0.4084,-0.3974,-0.3865,-0.3857,-0.3934,-0.3917,-0.371,-0.3635,-0.3489,-0.3774,-0.3776,-0.3777,0,-0.4255,-0.4366,-0.4393,-0.4487,-0.4565,-0.459,-0.4596,-0.4591,-0.4572,-0.4563,-0.4434,-0.4381,-0.4287,-0.4258,-0.4156,-0.4007,-0.3938,-0.4006,-0.3847,-0.3843,-0.3943,-0.3908,-0.3776,-0.3663,-0.3797,-0.3795,-0.3794,0,-0.422,-0.4337,-0.4333,-0.4402,-0.4455,-0.4498,-0.4504,-0.4528,-0.4524,-0.4484,-0.448,-0.432,-0.4284,-0.4224,-0.4142,-0.4057,-0.3968,-0.4031,-0.4026,-0.3996,-0.3827,-0.3923,-0.3918,-0.3939,-0.3937,-0.3935,-0.381,0,-0.4267,-0.4304,-0.4324,-0.4375,-0.4415,-0.4463,-0.4479,-0.4495,-0.4488,-0.4465,-0.4401,-0.4303,-0.4239,-0.419,-0.4131,-0.4047,-0.4046,-0.4023,-0.4022,-0.3994,-0.3943,-0.393,-0.4072,-0.4071,-0.4071,-0.4071,0,0,-0.4231,-0.4267,-0.428,-0.4321,-0.4364,-0.4382,-0.4439,-0.4426,-0.4437,-0.4425,-0.4419,-0.4299,-0.4231,-0.4126,-0.4105,-0.4075,-0.4047,-0.4101,-0.4011,-0.4005,-0.3999,-0.3949,-0.3938,-0.407,-0.407,-0.407,-0.407,0,-0.4229,-0.4243,-0.4261,-0.4303,-0.4358,-0.4373,-0.4393,-0.4434,-0.4429,-0.4416,-0.4355,-0.4291,-0.4239,-0.4163,-0.4113,-0.4078,-0.4054,-0.4072,-0.4087,-0.4011,-0.4005,-0.4,-0.395,-0.394,-0.4069,-0.4069,-0.4069,0,-0.4226,-0.4238,-0.4243,-0.4293,-0.4327,-0.437,-0.4369,-0.4402,-0.441,-0.4355,-0.4348,-0.4293,-0.4212,-0.416,-0.4138,-0.4137,-0.4055,-0.4091,-0.4091,-0.4104,-0.4026,-0.4019,-0.4013,-0.409,-0.409,-0.4091,0,0,-0.4227,-0.4227,-0.4283,-0.4299,-0.433,-0.4358,-0.4376,-0.4386,-0.4375,-0.4368,-0.4346,-0.429,-0.4224,-0.4199,-0.4155,-0.4113,-0.408,-0.4096,-0.4095,-0.4094,-0.4107,-0.4029,-0.4023,-0.4092,-0.4092,-0.4092,0,0,-0.4226,-0.4254,-0.4273,-0.429,-0.434,-0.4362,-0.4378,-0.4386,-0.4364,-0.4346,-0.4304,-0.4291,-0.4246,-0.4218,-0.4238,-0.4157,-0.4157,-0.4152,-0.4182,-0.418,-0.4179,-0.4207,-0.4221,0,0,0,0,0,-0.4247,-0.4252,-0.4269,-0.4278,-0.4312,-0.4359,-0.4363,-0.4374,-0.4362,-0.4385,-0.4329,-0.4319,-0.421,-0.4227,-0.4217,-0.4204,-0.4108,-0.4105,-0.4102,-0.4131,-0.4129,-0.4128,0,0,0,0,0,0,-0.4251,-0.426,-0.4269,-0.4291,-0.43,-0.4356,-0.4333,-0.4335,-0.4361,-0.4362,-0.4326,-0.4317,-0.4282,-0.4231,-0.4222,-0.421,-0.4224,-0.4107,-0.4104,-0.4102,-0.413,-0.4129,-0.4128,0,0,0,0,0,-0.4253,-0.4261,-0.4315,-0.429,-0.4298,-0.432,-0.4332,-0.4335,-0.4351,-0.4314,-0.4308,-0.4365,-0.4283,-0.4273,-0.4226,-0.4215,-0.423,-0.4227,-0.4105,-0.4103,-0.4102,-0.413,0,0,0,0,0,0,-0.4256,-0.425,-0.4317,-0.4319,-0.4292,-0.4318,-0.4323,-0.4334,-0.43,-0.4298,-0.4347,-0.4347,-0.4283,-0.4275,-0.4268,-0.4218,-0.4235,-0.4232,-0.423,-0.4104,-0.4102,-0.4101,0,0,0,0,0,0,-0.4247,-0.4252,-0.4318,-0.4319,-0.4321,-0.4316,-0.432,-0.4285,-0.4297,-0.4332,-0.4334,-0.4347,-0.4278,-0.4277,-0.4271,-0.4216,-0.4239,-0.4236,-0.4234,-0.4232,-0.4102,-0.4101,0,0,0,0,0,0,-0.4249,-0.4254,-0.4317,-0.4319,-0.4321,-0.4347,-0.4281,-0.4301,-0.4346,-0.4331,-0.4347,-0.4347,-0.4279,-0.4273,-0.4273,-0.4221,-0.4217,-0.4239,-0.4237,-0.4235,-0.4234,0,0,0,0,0,0,0,-0.4251,-0.422,-0.4309,-0.432,-0.4322,-0.4346,-0.4346,-0.4346,-0.4346,-0.4347,-0.4347,-0.4347,-0.4258,-0.4255,-0.4251,-0.4226,0,0,-0.424,-0.4238,0,0,0,0,0,0,0,0,-0.4219,-0.422,-0.4309,-0.431,-0.4311,-0.4346,-0.4346,-0.4346,-0.4346,-0.4347,-0.4347,-0.4347,-0.4257,-0.4254,-0.4251,0,0,0,0,0,0,0,0,0,0,0,0,0,0,0,-0.4309,-0.431,0,-0.4346,-0.4346,-0.4346,-0.4346,-0.4347,-0.4347,-0.4347,-0.4256,-0.4254,-0.4252,0,0,0,0,0,0,0,0,0,0,0,0,0,0,0,0,0,0,0,0,0,0,0,0,0,0,0,0,0,0,0,0,0,0,0,0,0,0,0,0,0,0,0,0,0,0,0,0,0,0,0,0,0,0,0,0,0,0,0,0,0,0,0,0,0,0,0,0,0]}],[{"header":{"parameterUnit":"kt","parameterCategory":2,"dx":1,"dy":1,"la1":30.253999710083008,"la2":30.299108505249023,"lo1":-89.0895004272461,"lo2":-89.04439544677734,"nx":28,"ny":28,"refTime":"2022-10-20T21:00:00:Z","depth":"0","parameterNumber":3,"parameterNumberName":"V-component_of_CURRENTS"},"data":[-0.0496,-0.0689,-0.0731,-0.0633,-0.0533,-0.0123,0.0245,0.1098,0.166,0.2665,0.3114,0.3285,0.2723,0.1879,0.1519,0.1476,0.1424,0.1377,0.1332,0.1414,0.1407,0.1401,0.143,0.1461,0.1461,0.1317,0.1316,0.1315,-0.0397,-0.0504,-0.0623,-0.0598,-0.0512,-0.0411,0.0012,0.0511,0.1209,0.1664,0.212,0.2251,0.202,0.1743,0.1445,0.1415,0.1373,0.1394,0.1355,0.1352,0.1407,0.144,0.1474,0.1474,0.1474,0.1474,0.1474,0.1474,-0.0224,-0.0336,-0.0436,-0.0478,-0.0448,-0.0229,0.0029,0.0352,0.0741,0.1358,0.1213,0.1633,0.1351,0.1403,0.1358,0.1295,0.1224,0.1341,0.1302,0.1243,0.1264,0.1299,0.1308,0.1308,0.1307,0.1307,0.1306,0,-0.0067,-0.0104,-0.0159,-0.0241,-0.022,-0.0095,0.0054,0.0177,0.0491,0.0719,0.0966,0.1086,0.1061,0.1179,0.1194,0.12,0.1207,0.1221,0.1232,0.1319,0.1257,0.124,0.127,0.1299,0.1298,0.1298,0.1297,0.1297,0.012,0.0058,0.0052,0.0017,0.0048,0.0108,0.0174,0.041,0.0522,0.073,0.0773,0.0875,0.1009,0.1052,0.1102,0.1153,0.115,0.1204,0.1251,0.1257,0.1208,0.1152,0.1152,0.1289,0.129,0.1291,0.1292,0,0.0214,0.0253,0.0204,0.028,0.032,0.0307,0.0499,0.0546,0.0699,0.0814,0.0851,0.0996,0.1042,0.1131,0.1156,0.1179,0.1173,0.1173,0.1209,0.1198,0.1232,0.1202,0.1158,0.1158,0.1172,0.1172,0.1172,0,0.0396,0.0378,0.044,0.0413,0.0416,0.056,0.0609,0.0703,0.0859,0.0935,0.1061,0.1089,0.1195,0.1215,0.1216,0.1203,0.1199,0.1214,0.1195,0.1237,0.1239,0.1248,0.1219,0.1217,0.1217,0.1217,0.1218,0,0.051,0.0564,0.0528,0.0553,0.0657,0.0695,0.0771,0.0899,0.0956,0.1078,0.1121,0.1191,0.1199,0.1218,0.121,0.1219,0.1203,0.1201,0.1196,0.1194,0.1229,0.1229,0.128,0.1218,0.1218,0.1218,0.1219,0,0.067,0.0664,0.0645,0.0725,0.075,0.0778,0.0882,0.0936,0.1056,0.1108,0.1181,0.1216,0.1243,0.1245,0.1236,0.1237,0.1224,0.121,0.1207,0.1209,0.117,0.1198,0.1209,0.1226,0.1146,0.1146,0.1146,0,0.0746,0.0718,0.0793,0.0802,0.0808,0.0929,0.0968,0.104,0.1102,0.1157,0.1194,0.1198,0.12,0.1198,0.1222,0.1189,0.1201,0.1206,0.1163,0.1161,0.1187,0.1193,0.1243,0.1205,0.1145,0.1145,0.1145,0,0.0794,0.0848,0.0844,0.086,0.0951,0.097,0.1025,0.1091,0.1116,0.1157,0.1198,0.1174,0.1201,0.1186,0.1173,0.1186,0.1193,0.1168,0.1168,0.1168,0.1183,0.1187,0.1188,0.1192,0.1193,0.1194,0.1144,0,0.0889,0.0894,0.0892,0.0929,0.0976,0.0993,0.1063,0.1099,0.1129,0.116,0.1174,0.116,0.1162,0.1148,0.1131,0.1142,0.112,0.1114,0.1132,0.1131,0.1102,0.1103,0.1082,0.1081,0.1081,0.108,0,0,0.0934,0.0924,0.0971,0.0983,0.1016,0.1083,0.1102,0.1123,0.1155,0.1175,0.1172,0.1158,0.114,0.1128,0.1121,0.1097,0.1086,0.112,0.1116,0.112,0.1124,0.1098,0.11,0.1079,0.1079,0.1079,0.1079,0,0.0956,0.0981,0.0966,0.1007,0.106,0.1093,0.1106,0.1157,0.117,0.1174,0.1162,0.1161,0.1132,0.1125,0.111,0.1091,0.1091,0.1071,0.1108,0.1111,0.1116,0.112,0.1096,0.1098,0.1078,0.1078,0.1078,0,0.1009,0.1022,0.1019,0.1058,0.1091,0.112,0.1149,0.1172,0.1183,0.1179,0.1178,0.1166,0.1134,0.1117,0.1107,0.1111,0.1098,0.1094,0.1095,0.1115,0.112,0.1125,0.1128,0.1086,0.1086,0.1087,0,0,0.1029,0.1016,0.1078,0.107,0.1098,0.1141,0.1157,0.1177,0.1184,0.1184,0.1187,0.1167,0.1142,0.1137,0.1115,0.1103,0.1101,0.1098,0.1098,0.1098,0.1118,0.1123,0.1126,0.1088,0.1088,0.1088,0,0,0.1036,0.107,0.1096,0.1089,0.1134,0.1169,0.1174,0.1197,0.1192,0.1184,0.1182,0.1178,0.1158,0.1145,0.1163,0.1128,0.1124,0.1121,0.1156,0.1155,0.1154,0.1187,0.1171,0,0,0,0,0,0.1086,0.1068,0.1091,0.1098,0.1129,0.1164,0.1169,0.1193,0.1198,0.1204,0.1188,0.1194,0.1145,0.1161,0.1158,0.1164,0.1105,0.1102,0.1099,0.114,0.1139,0.1138,0,0,0,0,0,0,0.1089,0.1094,0.1092,0.1125,0.1133,0.1163,0.1168,0.1174,0.1197,0.1199,0.1195,0.1194,0.1186,0.1163,0.116,0.1166,0.1171,0.1104,0.1101,0.1099,0.1139,0.1139,0.1138,0,0,0,0,0,0.1091,0.1096,0.1137,0.1125,0.1133,0.1168,0.1168,0.1173,0.1186,0.1187,0.1187,0.1206,0.1186,0.1183,0.1161,0.1167,0.1173,0.1172,0.1102,0.11,0.1098,0.1139,0,0,0,0,0,0,0.1093,0.1093,0.1139,0.1143,0.1127,0.1167,0.1172,0.1171,0.1172,0.1174,0.1196,0.1197,0.1186,0.1184,0.1182,0.1168,0.1175,0.1174,0.1173,0.1101,0.1099,0.1098,0,0,0,0,0,0,0.1092,0.1096,0.1141,0.1142,0.1146,0.1166,0.1171,0.1159,0.1169,0.1178,0.1181,0.1196,0.118,0.1184,0.1183,0.1165,0.1176,0.1175,0.1174,0.1174,0.1099,0.1098,0,0,0,0,0,0,0.1094,0.1098,0.114,0.1144,0.1147,0.119,0.1155,0.1176,0.1202,0.1175,0.1202,0.1203,0.118,0.1179,0.1183,0.1166,0.1165,0.1176,0.1175,0.1175,0.1175,0,0,0,0,0,0,0,0.1096,0.1062,0.1122,0.1145,0.1148,0.1183,0.1184,0.1184,0.1202,0.1202,0.1202,0.1202,0.1182,0.1181,0.1179,0.1167,0,0,0.1176,0.1176,0,0,0,0,0,0,0,0,0.1062,0.1062,0.1122,0.1124,0.1125,0.1184,0.1184,0.1184,0.1202,0.1202,0.1202,0.1202,0.1181,0.118,0.118,0,0,0,0,0,0,0,0,0,0,0,0,0,0,0,0.1123,0.1124,0,0.1184,0.1184,0.1184,0.1202,0.1202,0.1202,0.1202,0.1181,0.118,0.118,0,0,0,0,0,0,0,0,0,0,0,0,0,0,0,0,0,0,0,0,0,0,0,0,0,0,0,0,0,0,0,0,0,0,0,0,0,0,0,0,0,0,0,0,0,0,0,0,0,0,0,0,0,0,0,0,0,0,0,0,0,0,0,0,0,0,0,0,0]}]],[[{"header":{"parameterUnit":"kt","parameterCategory":2,"dx":1,"dy":1,"la1":30.253999710083008,"la2":30.299108505249023,"lo1":-89.0895004272461,"lo2":-89.04439544677734,"nx":28,"ny":28,"refTime":"2022-10-20T21:00:00:Z","depth":"2","parameterNumber":2,"parameterNumberName":"U-component_of_CURRENTS"},"data":[-0.104,-0.101,-0.1033,-0.1082,-0.117,-0.125,-0.1322,-0.1245,-0.1118,-0.0772,-0.0571,-0.0451,-0.0325,-0.0262,-0.0152,-0.0105,-0.0121,-0.012,0.013,0.0013,0.001,0.0044,-0.0101,0,0,0,0,0,-0.1131,-0.1132,-0.1184,-0.1255,-0.1343,-0.1452,-0.1589,-0.1539,-0.1458,-0.1251,-0.1092,-0.0851,-0.0579,-0.0357,-0.0107,0.0069,0.0018,0.002,-0.0081,-0.0078,-0.0077,-0.0179,-0.0093,-0.0095,-0.0097,-0.0098,0,0,-0.1275,-0.1276,-0.1308,-0.1359,-0.1469,-0.1601,-0.1627,-0.1663,-0.1642,-0.1416,-0.1439,-0.1112,-0.0818,-0.0262,-0.0149,-0.0012,0.0087,0.0142,0.0137,0.0132,0.005,-0.0029,0.0191,0.0192,0.0192,0.0193,0.0193,0,-0.1369,-0.1391,-0.1411,-0.149,-0.1549,-0.1637,-0.1698,-0.1715,-0.1697,-0.1612,-0.146,-0.128,-0.089,-0.0566,-0.0215,-0.0058,-0.0005,0.0068,0.0057,-0.0097,-0.018,-0.0196,-0.0221,0.0027,0.0026,0.0026,0.0026,0.0026,-0.1457,-0.1467,-0.1537,-0.157,-0.1598,-0.1639,-0.1659,-0.1656,-0.1639,-0.148,-0.1437,-0.1223,-0.1021,-0.0606,-0.0356,-0.0081,-0.0132,0.0048,-0.0005,-0.0108,-0.0117,-0.0147,-0.0175,0.0022,0.0022,0.0023,0.0023,0,-0.1492,-0.155,-0.1562,-0.16,-0.1622,-0.162,-0.1645,-0.1609,-0.1538,-0.146,-0.1436,-0.12,-0.1,-0.0814,-0.0531,-0.0386,-0.0172,-0.0101,-0.0224,-0.0218,-0.0172,-0.0198,0.0112,0.0114,0.0116,0.0118,0.0119,0,-0.1568,-0.1565,-0.1649,-0.1644,-0.1637,-0.1626,-0.1576,-0.1517,-0.1435,-0.138,-0.1255,-0.1146,-0.0965,-0.0798,-0.0675,-0.0454,-0.0415,-0.0326,-0.0303,-0.0379,-0.039,-0.0512,-0.0543,-0.0267,-0.0269,-0.027,-0.0272,0,-0.1609,-0.1633,-0.1642,-0.1638,-0.1624,-0.1595,-0.1585,-0.1464,-0.1424,-0.1291,-0.1246,-0.1069,-0.1022,-0.0847,-0.0744,-0.0782,-0.0481,-0.0509,-0.0393,-0.0394,-0.0428,-0.0441,-0.0274,-0.0274,-0.0275,-0.0276,-0.0276,0,-0.165,-0.1681,-0.1673,-0.1673,-0.1658,-0.1629,-0.1524,-0.148,-0.1348,-0.1306,-0.1209,-0.118,-0.104,-0.1079,-0.0843,-0.0945,-0.0848,-0.0776,-0.0765,-0.0811,-0.0874,-0.0688,-0.0509,-0.0687,-0.0691,-0.0695,-0.0698,0,-0.1703,-0.1714,-0.1712,-0.1683,-0.1681,-0.1646,-0.1576,-0.1512,-0.1457,-0.1381,-0.13,-0.1257,-0.1279,-0.1274,-0.1146,-0.11,-0.0952,-0.1096,-0.0927,-0.0922,-0.0895,-0.0724,-0.078,-0.0568,-0.0744,-0.0739,-0.0736,0,-0.1733,-0.1771,-0.1761,-0.1766,-0.1731,-0.1716,-0.1641,-0.1578,-0.1526,-0.1493,-0.141,-0.1344,-0.1354,-0.1338,-0.1338,-0.1222,-0.1031,-0.1275,-0.1272,-0.1135,-0.0782,-0.079,-0.076,-0.1025,-0.102,-0.1016,-0.0773,0,-0.1782,-0.1794,-0.1787,-0.177,-0.1748,-0.1738,-0.1704,-0.1682,-0.1676,-0.1653,-0.1579,-0.1563,-0.1532,-0.1506,-0.153,-0.1385,-0.1414,-0.1442,-0.1436,-0.1355,-0.1271,-0.1241,-0.1633,-0.1636,-0.1638,-0.164,0,0,-0.1805,-0.1819,-0.183,-0.1817,-0.1805,-0.1813,-0.179,-0.1769,-0.1775,-0.1748,-0.1774,-0.1726,-0.1715,-0.1604,-0.1594,-0.1616,-0.1576,-0.1598,-0.1438,-0.1416,-0.1395,-0.1306,-0.1275,-0.1644,-0.1645,-0.1646,-0.1647,0,-0.1816,-0.1838,-0.1837,-0.1829,-0.1828,-0.1824,-0.1822,-0.1831,-0.1816,-0.18,-0.1813,-0.1776,-0.1775,-0.1721,-0.1699,-0.1655,-0.1617,-0.1678,-0.1582,-0.1462,-0.1436,-0.1413,-0.1321,-0.1292,-0.1652,-0.1652,-0.1652,0,-0.1827,-0.1842,-0.1848,-0.1859,-0.1857,-0.1837,-0.1865,-0.1863,-0.1834,-0.1872,-0.1843,-0.1852,-0.1849,-0.1799,-0.1784,-0.1794,-0.1645,-0.1737,-0.1728,-0.1725,-0.1603,-0.1576,-0.1552,-0.1846,-0.1846,-0.1846,0,0,-0.183,-0.1843,-0.1851,-0.186,-0.1856,-0.1867,-0.1869,-0.1873,-0.1878,-0.1879,-0.1874,-0.1877,-0.1853,-0.183,-0.1834,-0.1793,-0.1759,-0.1752,-0.1743,-0.1735,-0.1727,-0.1605,-0.158,-0.1845,-0.1845,-0.1845,0,0,-0.1826,-0.1848,-0.1855,-0.1871,-0.1865,-0.1874,-0.1869,-0.1882,-0.1884,-0.1889,-0.1883,-0.1878,-0.1846,-0.1865,-0.1858,-0.1793,-0.1846,-0.1847,-0.1727,-0.1717,-0.1708,-0.169,-0.1833,0,0,0,0,0,-0.1837,-0.1847,-0.1853,-0.1858,-0.1882,-0.1876,-0.1877,-0.188,-0.1896,-0.1884,-0.1894,-0.1874,-0.1862,-0.1855,-0.1851,-0.1773,-0.1835,-0.1837,-0.1839,-0.1681,-0.1669,-0.166,0,0,0,0,0,0,-0.1839,-0.1845,-0.1853,-0.1866,-0.1871,-0.1876,-0.1889,-0.189,-0.1895,-0.1894,-0.1878,-0.1874,-0.1862,-0.1855,-0.1852,-0.1777,-0.1834,-0.1836,-0.1837,-0.1839,-0.1677,-0.1668,-0.166,0,0,0,0,0,-0.184,-0.1845,-0.1884,-0.1865,-0.187,-0.1876,-0.1888,-0.1889,-0.1892,-0.1878,-0.1874,-0.1892,-0.1863,-0.1858,-0.1853,-0.1778,-0.1836,-0.1835,-0.1837,-0.1838,-0.1839,-0.1672,0,0,0,0,0,0,-0.1841,-0.1846,-0.1885,-0.1886,-0.1858,-0.1875,-0.1878,-0.1888,-0.1875,-0.1873,-0.189,-0.1889,-0.1863,-0.186,-0.1856,-0.1777,-0.1838,-0.1837,-0.1836,-0.1838,-0.1839,-0.184,0,0,0,0,0,0,-0.1843,-0.1847,-0.1885,-0.1876,-0.1877,-0.1873,-0.1876,-0.1866,-0.1873,-0.1887,-0.1887,-0.1889,-0.1854,-0.1861,-0.1858,-0.1845,-0.1839,-0.1838,-0.1837,-0.1837,-0.1839,-0.1839,0,0,0,0,0,0,-0.1845,-0.1848,-0.1876,-0.1876,-0.1876,-0.1892,-0.1863,-0.1879,-0.1893,-0.1887,-0.1891,-0.1891,-0.1854,-0.1853,-0.186,-0.1848,-0.1846,-0.1839,-0.1838,-0.1838,-0.1838,0,0,0,0,0,0,0,-0.1846,-0.1824,-0.1876,-0.1876,-0.1876,-0.1899,-0.1899,-0.19,-0.1893,-0.1892,-0.1892,-0.1891,-0.1845,-0.1844,-0.1843,-0.185,0,0,-0.1839,-0.1839,0,0,0,0,0,0,0,0,-0.1823,-0.1824,-0.1876,-0.1877,-0.1877,-0.1899,-0.1899,-0.1899,-0.1893,-0.1892,-0.1892,-0.1891,-0.1845,-0.1844,-0.1843,0,0,0,0,0,0,0,0,0,0,0,0,0,0,0,-0.1876,-0.1877,0,-0.1899,-0.1899,-0.1899,-0.1893,-0.1892,-0.1892,-0.1892,-0.1845,-0.1844,-0.1843,0,0,0,0,0,0,0,0,0,0,0,0,0,0,0,0,0,0,0,0,0,0,0,0,0,0,0,0,0,0,0,0,0,0,0,0,0,0,0,0,0,0,0,0,0,0,0,0,0,0,0,0,0,0,0,0,0,0,0,0,0,0,0,0,0,0,0,0,0]}],[{"header":{"parameterUnit":"kt","parameterCategory":2,"dx":1,"dy":1,"la1":30.253999710083008,"la2":30.299108505249023,"lo1":-89.0895004272461,"lo2":-89.04439544677734,"nx":28,"ny":28,"refTime":"2022-10-20T21:00:00:Z","depth":"2","parameterNumber":3,"parameterNumberName":"V-component_of_CURRENTS"},"data":[-0.125,-0.1303,-0.1303,-0.1217,-0.111,-0.0889,-0.0718,-0.052,-0.0375,-0.034,-0.0338,-0.0462,-0.005,-0.0105,0.0066,0.0214,0.0302,0.0245,0.0448,0.0282,0.029,0.0443,0.0349,0,0,0,0,0,-0.119,-0.1186,-0.1162,-0.1052,-0.096,-0.0835,-0.0529,-0.0368,-0.0159,-0.0048,0.0104,0.0149,0.0073,0.0356,0.0314,0.0339,0.0271,0.0542,0.0416,0.0426,0.0435,0.0371,0.0339,0.0339,0.034,0.034,0,0,-0.1063,-0.1069,-0.1015,-0.0953,-0.0825,-0.0661,-0.0503,-0.0274,-0.0021,0.0287,0.0574,0.0692,0.0815,0.0517,0.0612,0.0706,0.0652,0.0654,0.0653,0.0654,0.0606,0.0617,0.0633,0.0634,0.0636,0.0638,0.0639,0,-0.0965,-0.0929,-0.0856,-0.0788,-0.0681,-0.0502,-0.0276,-0.0122,0.0294,0.0503,0.087,0.1004,0.113,0.0977,0.0926,0.0849,0.0863,0.0845,0.104,0.0495,0.0504,0.051,0.0514,0.0503,0.0504,0.0505,0.0506,0.0506,-0.085,-0.0831,-0.0653,-0.0608,-0.0521,-0.0361,-0.024,0.008,0.0241,0.073,0.0834,0.1105,0.1192,0.1263,0.1076,0.0956,0.1071,0.0878,0.0668,0.0817,0.0827,0.0821,0.0816,0.052,0.0518,0.0517,0.0516,0,-0.0794,-0.0671,-0.0578,-0.0378,-0.0308,-0.0241,0.0056,0.0163,0.0403,0.0625,0.0697,0.0949,0.1071,0.1065,0.1051,0.0937,0.091,0.0907,0.0788,0.0784,0.0807,0.0804,0.0864,0.0866,0.0867,0.0869,0.087,0,-0.0631,-0.0571,-0.0377,-0.034,-0.0241,-0.0058,0.0062,0.0193,0.0404,0.0566,0.0653,0.0803,0.0761,0.0847,0.0778,0.0801,0.0805,0.0691,0.0707,0.0564,0.0558,0.0631,0.063,0.0632,0.0631,0.063,0.0629,0,-0.0557,-0.0376,-0.0317,-0.0256,-0.0038,0.0012,0.0131,0.0279,0.0401,0.0526,0.0643,0.0645,0.0741,0.0672,0.0733,0.066,0.0762,0.0667,0.0681,0.0687,0.0567,0.0562,0.0628,0.0628,0.0628,0.0628,0.0627,0,-0.0411,-0.0318,-0.0235,-0.0043,-0.0004,0.0066,0.0204,0.0303,0.0429,0.0495,0.0538,0.0595,0.0632,0.0593,0.0608,0.0592,0.0581,0.0585,0.0589,0.0628,0.0644,0.0567,0.0575,0.066,0.066,0.0659,0.0659,0,-0.0387,-0.0269,-0.0154,-0.0056,0.001,0.0128,0.0207,0.0302,0.0378,0.0464,0.0482,0.0566,0.0531,0.058,0.0546,0.0598,0.0578,0.0552,0.0598,0.0601,0.0613,0.0644,0.0489,0.0572,0.0653,0.0654,0.0654,0,-0.0364,-0.0159,-0.0157,-0.0091,0.005,0.0124,0.0191,0.0292,0.0342,0.0401,0.0459,0.0505,0.0527,0.0553,0.0576,0.0561,0.0577,0.056,0.056,0.0586,0.0596,0.0635,0.0643,0.0544,0.0543,0.0543,0.065,0,-0.0242,-0.0172,-0.0141,-0.0018,0.0056,0.0116,0.0227,0.0278,0.0314,0.0379,0.0428,0.0487,0.0545,0.0547,0.0577,0.0579,0.0599,0.0581,0.0557,0.0571,0.0623,0.0627,0.0592,0.0592,0.0592,0.0593,0,0,-0.0277,-0.0177,-0.0076,-0.0005,0.0052,0.0139,0.0192,0.0256,0.0368,0.0393,0.039,0.0495,0.0518,0.0558,0.0572,0.06,0.061,0.0564,0.0577,0.0575,0.0574,0.0622,0.0625,0.0593,0.0593,0.0593,0.0593,0,-0.0219,-0.0148,-0.0101,-0.0017,0.0092,0.0166,0.0174,0.0294,0.0313,0.0395,0.0408,0.0437,0.0513,0.0535,0.0556,0.0602,0.0584,0.0601,0.0585,0.0579,0.0577,0.0575,0.0623,0.0625,0.0594,0.0594,0.0594,0,-0.0201,-0.0111,-0.0078,0.0062,0.013,0.0205,0.0232,0.0295,0.0337,0.0369,0.0408,0.0441,0.0484,0.0528,0.0537,0.0528,0.0567,0.0558,0.0558,0.055,0.0543,0.0541,0.054,0.0549,0.0549,0.0548,0,0,-0.0171,-0.0106,0.003,0.0082,0.0123,0.0219,0.0262,0.0296,0.0362,0.0374,0.0402,0.0428,0.0466,0.0471,0.0514,0.0558,0.0565,0.055,0.0552,0.0553,0.0546,0.0539,0.0539,0.0547,0.0547,0.0547,0,0,-0.0161,-0.0012,0.0014,0.0086,0.0178,0.0308,0.0325,0.0355,0.0398,0.037,0.0397,0.0402,0.0426,0.0446,0.0425,0.0476,0.0471,0.0477,0.0448,0.0452,0.0454,0.0432,0.0394,0,0,0,0,0,-0.0051,-0.0019,0.0004,0.0031,0.0193,0.0312,0.0333,0.0368,0.034,0.0355,0.0382,0.0353,0.0443,0.0426,0.0437,0.042,0.0526,0.053,0.0533,0.0508,0.0511,0.0514,0,0,0,0,0,0,-0.004,-0.0007,0.0004,0.0137,0.0174,0.0311,0.0299,0.0311,0.0337,0.0331,0.0358,0.0356,0.0375,0.042,0.0429,0.0413,0.0391,0.0528,0.0531,0.0533,0.0509,0.0512,0.0514,0,0,0,0,0,-0.0031,-0.0004,0.0236,0.0137,0.0169,0.024,0.0294,0.0304,0.0312,0.0363,0.0362,0.0326,0.0378,0.0383,0.0425,0.0407,0.0384,0.0388,0.053,0.0532,0.0534,0.0511,0,0,0,0,0,0,-0.0023,0.0012,0.0244,0.0256,0.0091,0.0231,0.025,0.0298,0.034,0.0344,0.0334,0.0329,0.0382,0.0385,0.0389,0.0404,0.0379,0.0382,0.0385,0.0531,0.0533,0.0535,0,0,0,0,0,0,-0.0002,0.0022,0.025,0.0191,0.0197,0.0222,0.0239,0.0291,0.0336,0.0307,0.0306,0.0331,0.0335,0.0386,0.0389,0.0474,0.0374,0.0378,0.038,0.0382,0.0533,0.0534,0,0,0,0,0,0,0.0009,0.003,0.0188,0.0193,0.0197,0.0339,0.0264,0.04,0.0366,0.0301,0.0355,0.035,0.0335,0.034,0.039,0.0474,0.0474,0.0374,0.0377,0.0379,0.038,0,0,0,0,0,0,0,0.0019,-0.0136,0.0171,0.0194,0.0198,0.0371,0.0374,0.0378,0.0365,0.0361,0.0356,0.0352,0.0354,0.0358,0.0362,0.0474,0,0,0.0374,0.0376,0,0,0,0,0,0,0,0,-0.0143,-0.0137,0.0171,0.0174,0.0176,0.0372,0.0374,0.0377,0.0364,0.0361,0.0357,0.0354,0.0355,0.0358,0.0361,0,0,0,0,0,0,0,0,0,0,0,0,0,0,0,0.0171,0.0174,0,0.0372,0.0374,0.0377,0.0364,0.0361,0.0358,0.0355,0.0356,0.0358,0.0361,0,0,0,0,0,0,0,0,0,0,0,0,0,0,0,0,0,0,0,0,0,0,0,0,0,0,0,0,0,0,0,0,0,0,0,0,0,0,0,0,0,0,0,0,0,0,0,0,0,0,0,0,0,0,0,0,0,0,0,0,0,0,0,0,0,0,0,0,0]}]],[[{"header":{"parameterUnit":"kt","parameterCategory":2,"dx":1,"dy":1,"la1":30.253999710083008,"la2":30.299108505249023,"lo1":-89.0895004272461,"lo2":-89.04439544677734,"nx":28,"ny":28,"refTime":"2022-10-20T21:00:00:Z","depth":"4","parameterNumber":2,"parameterNumberName":"U-component_of_CURRENTS"},"data":[0.0146,0.0144,0.0147,0.016,0.0174,0.0183,0.0175,0.0165,0.0147,0.0144,0.0179,0.0192,0.0266,0.026,0.0349,0.0363,0.0067,0.046,0.046,-0.0078,-0.0108,-0.0135,-0.0147,0,0,0,0,0,0.0172,0.0165,0.0157,0.0161,0.0172,0.0183,0.0153,0.0122,0.0111,0.0123,0.0092,0.0184,0.0266,0.0305,0.034,0.0381,0.0154,0.0423,-0.0039,-0.0097,-0.013,-0.013,0,0,0,0,0,0,0.0198,0.0192,0.0184,0.0178,0.0182,0.0178,0.0157,0.0128,0.0086,0.0057,0.0114,0.0177,0.0173,0.0228,0.0317,0.0337,0.0137,-0.0016,-0.0051,-0.0084,-0.0064,0.0105,0.0366,0,0,0,0,0,0.0219,0.0219,0.0206,0.0203,0.0189,0.0174,0.0138,0.0108,0.0039,0.0005,0.0036,0.0057,0.0151,0.0081,0.0211,0.0127,-0.017,-0.0044,-0.0073,-0.044,-0.0333,-0.0345,-0.0365,-0.0257,-0.0261,-0.0264,-0.0266,0,0.0246,0.0234,0.0222,0.0215,0.0204,0.0168,0.0143,0.0057,0.0008,-0.0006,-0.0022,-0.0011,-0.0057,0.0023,-0.0081,-0.0112,-0.0156,-0.0125,-0.0515,-0.0388,-0.0389,-0.0401,-0.0412,-0.0293,-0.0291,-0.0288,-0.0286,0,0.0252,0.0251,0.0225,0.0194,0.0194,0.0164,0.0102,0.0058,-0.0023,-0.0068,-0.0124,-0.0225,-0.0251,-0.0288,-0.0444,-0.0489,-0.0509,-0.0438,-0.0561,-0.0564,-0.046,-0.046,-0.0337,-0.0327,-0.0319,-0.0312,-0.0306,0,0.0265,0.0245,0.0234,0.0217,0.0196,0.0141,0.0096,0.0038,-0.005,-0.0086,-0.023,-0.0272,-0.054,-0.0531,-0.067,-0.0644,-0.0763,-0.0769,-0.0755,-0.106,-0.1057,-0.1026,-0.1019,-0.1099,-0.1101,-0.1102,-0.1103,0,0.0266,0.0242,0.0227,0.0211,0.016,0.0137,0.0102,0.0029,-0.0022,-0.0144,-0.0196,-0.0386,-0.0494,-0.0659,-0.0746,-0.0888,-0.0841,-0.1035,-0.0818,-0.0796,-0.1029,-0.102,-0.1104,-0.1104,-0.1105,-0.1105,-0.1105,0,0.0262,0.0247,0.0233,0.0175,0.0168,0.0148,0.0076,0.0035,-0.0043,-0.0121,-0.0257,-0.0357,-0.0542,-0.0636,-0.0835,-0.0874,-0.0956,-0.1019,-0.1017,-0.0742,-0.0728,-0.0852,-0.0938,-0.0938,-0.0938,-0.0938,-0.0937,0,0.025,0.0242,0.0214,0.0186,0.0171,0.0127,0.009,0.0036,-0.0034,-0.0105,-0.0234,-0.0364,-0.0492,-0.0632,-0.0754,-0.089,-0.0946,-0.0952,-0.0981,-0.0976,-0.0733,-0.0758,-0.1083,-0.0935,-0.0936,-0.0936,-0.0936,0,0.023,0.0204,0.0199,0.0181,0.0141,0.0125,0.0087,0.0038,0.0004,-0.0113,-0.0183,-0.0394,-0.0493,-0.0568,-0.0715,-0.0823,-0.0925,-0.0922,-0.0924,-0.0838,-0.1036,-0.0782,-0.0758,-0.1073,-0.1075,-0.1076,-0.0935,0,0.0195,0.0177,0.0181,0.0157,0.0138,0.013,0.0085,0.0048,-0.0017,-0.0067,-0.0203,-0.0338,-0.0483,-0.0559,-0.0658,-0.0807,-0.0793,-0.0845,-0.0831,-0.0911,-0.0831,-0.0832,-0.0788,-0.0786,-0.0785,-0.0784,0,0,0.0171,0.0158,0.0138,0.0133,0.0114,0.009,0.0082,0.0056,-0.003,-0.007,-0.0111,-0.033,-0.0413,-0.0562,-0.0641,-0.0677,-0.0705,-0.0732,-0.0872,-0.0882,-0.0891,-0.082,-0.0823,-0.0781,-0.0781,-0.078,-0.078,0,0.0152,0.0135,0.0136,0.0122,0.0103,0.0082,0.0079,0.0035,0.0007,-0.0084,-0.0153,-0.0263,-0.0415,-0.0495,-0.0557,-0.0657,-0.0672,-0.0728,-0.0785,-0.0859,-0.0871,-0.0881,-0.0814,-0.0818,-0.0776,-0.0777,-0.0777,0,0.013,0.0107,0.0102,0.0079,0.0073,0.0064,0.0044,0.0036,0.001,-0.0067,-0.0143,-0.023,-0.0324,-0.0448,-0.0502,-0.0504,-0.0646,-0.0636,-0.0644,-0.0599,-0.067,-0.0685,-0.0697,-0.0531,-0.053,-0.0529,0,0,0.0117,0.0104,0.0077,0.0073,0.0072,0.0047,0.004,0.0023,-0.0028,-0.0048,-0.0124,-0.0211,-0.0297,-0.0369,-0.0421,-0.0544,-0.0514,-0.0607,-0.0619,-0.0628,-0.059,-0.0663,-0.0677,-0.0527,-0.0527,-0.0527,0,0,0.0111,0.0074,0.0065,0.0056,0.0044,0.0018,0.0023,0.0002,-0.005,-0.0064,-0.0136,-0.0159,-0.0259,-0.03,-0.0258,-0.045,-0.0399,-0.0409,-0.045,-0.0465,-0.0476,-0.0413,-0.0271,0,0,0,0,0,0.0077,0.0077,0.0069,0.0063,0.0034,0.0022,0.0019,0.0001,-0.0013,-0.0006,-0.0089,-0.0103,-0.03,-0.0265,-0.0285,-0.0365,-0.0493,-0.0499,-0.0505,-0.058,-0.0595,-0.0608,0,0,0,0,0,0,0.0075,0.0068,0.0069,0.0042,0.0034,0.0022,0.0002,-0.0002,-0.0013,-0.0014,-0.0089,-0.0105,-0.015,-0.0257,-0.0274,-0.0351,-0.0265,-0.0495,-0.05,-0.0505,-0.0585,-0.0598,-0.0608,0,0,0,0,0,0.0073,0.0067,0.0024,0.0042,0.0035,0.001,0.0003,-0.0001,-0.0007,-0.0082,-0.0095,-0.002,-0.0148,-0.0168,-0.0267,-0.0343,-0.0253,-0.026,-0.0499,-0.0503,-0.0506,-0.0591,0,0,0,0,0,0,0.0071,0.0069,0.0023,0.002,0.004,0.0011,0.0007,-0.0,-0.0075,-0.0086,-0.0018,-0.0019,-0.0148,-0.0163,-0.0178,-0.0339,-0.0244,-0.025,-0.0254,-0.0502,-0.0505,-0.0508,0,0,0,0,0,0,0.0071,0.0067,0.0022,0.002,0.0018,0.0012,0.0008,-0.0058,-0.0079,-0.0007,-0.0009,-0.0018,-0.0157,-0.016,-0.0171,-0.0271,-0.0236,-0.0243,-0.0247,-0.025,-0.0504,-0.0507,0,0,0,0,0,0,0.0069,0.0066,0.0021,0.0019,0.0017,-0.0012,-0.005,-0.0096,-0.0023,-0.0006,-0.0024,-0.0024,-0.0155,-0.0165,-0.0167,-0.026,-0.0268,-0.0237,-0.0241,-0.0244,-0.0246,0,0,0,0,0,0,0,0.0067,0.0096,0.0035,0.0018,0.0016,-0.0005,-0.0006,-0.0006,-0.0023,-0.0024,-0.0024,-0.0024,-0.0201,-0.0208,-0.0215,-0.0252,0,0,-0.0236,-0.0239,0,0,0,0,0,0,0,0,0.0097,0.0096,0.0035,0.0034,0.0033,-0.0005,-0.0006,-0.0006,-0.0024,-0.0024,-0.0024,-0.0024,-0.0203,-0.0208,-0.0214,0,0,0,0,0,0,0,0,0,0,0,0,0,0,0,0.0035,0.0034,0,-0.0005,-0.0006,-0.0006,-0.0024,-0.0024,-0.0024,-0.0024,-0.0204,-0.0209,-0.0214,0,0,0,0,0,0,0,0,0,0,0,0,0,0,0,0,0,0,0,0,0,0,0,0,0,0,0,0,0,0,0,0,0,0,0,0,0,0,0,0,0,0,0,0,0,0,0,0,0,0,0,0,0,0,0,0,0,0,0,0,0,0,0,0,0,0,0,0,0]}],[{"header":{"parameterUnit":"kt","parameterCategory":2,"dx":1,"dy":1,"la1":30.253999710083008,"la2":30.299108505249023,"lo1":-89.0895004272461,"lo2":-89.04439544677734,"nx":28,"ny":28,"refTime":"2022-10-20T21:00:00:Z","depth":"4","parameterNumber":3,"parameterNumberName":"V-component_of_CURRENTS"},"data":[-0.0849,-0.0865,-0.0865,-0.0862,-0.0886,-0.0927,-0.0962,-0.0968,-0.0932,-0.093,-0.092,-0.0929,-0.0919,-0.0912,-0.0902,-0.0906,-0.1037,-0.0941,-0.0941,-0.1187,-0.1202,-0.1215,-0.1262,0,0,0,0,0,-0.0874,-0.0876,-0.0903,-0.0931,-0.098,-0.1025,-0.1053,-0.1087,-0.108,-0.0988,-0.1044,-0.0946,-0.0922,-0.0911,-0.0913,-0.0936,-0.107,-0.0938,-0.1148,-0.1196,-0.1212,-0.1253,0,0,0,0,0,0,-0.0921,-0.0927,-0.0973,-0.1007,-0.1063,-0.1082,-0.1122,-0.1107,-0.1132,-0.1127,-0.1041,-0.1013,-0.1031,-0.1029,-0.0967,-0.0984,-0.1056,-0.1112,-0.1131,-0.1148,-0.1164,-0.1136,-0.0898,0,0,0,0,0,-0.0952,-0.1007,-0.103,-0.1081,-0.1137,-0.1175,-0.1217,-0.1226,-0.1272,-0.1326,-0.1215,-0.1205,-0.1107,-0.1142,-0.1105,-0.1095,-0.1302,-0.1209,-0.1222,-0.139,-0.1384,-0.1392,-0.1411,-0.1274,-0.1276,-0.1278,-0.1278,0,-0.0988,-0.1018,-0.1104,-0.1137,-0.1186,-0.1261,-0.1295,-0.1403,-0.141,-0.1404,-0.1367,-0.1356,-0.1368,-0.1231,-0.1292,-0.1276,-0.1277,-0.1249,-0.1428,-0.1411,-0.1413,-0.1428,-0.1442,-0.1291,-0.129,-0.1289,-0.1288,0,-0.101,-0.1062,-0.1109,-0.1198,-0.1228,-0.1275,-0.1381,-0.1406,-0.15,-0.15,-0.1543,-0.1602,-0.1551,-0.1572,-0.1548,-0.1549,-0.1483,-0.1418,-0.1544,-0.1544,-0.146,-0.1469,-0.1313,-0.1308,-0.1304,-0.1301,-0.1298,0,-0.1043,-0.1081,-0.1164,-0.1194,-0.1236,-0.1328,-0.1384,-0.1441,-0.1531,-0.1538,-0.1669,-0.1648,-0.178,-0.1726,-0.1746,-0.1647,-0.168,-0.1632,-0.1616,-0.1798,-0.1805,-0.1769,-0.1774,-0.1738,-0.1739,-0.174,-0.1741,0,-0.1076,-0.1132,-0.1171,-0.1204,-0.1287,-0.1336,-0.138,-0.1469,-0.1517,-0.1625,-0.1677,-0.1745,-0.1782,-0.1798,-0.1789,-0.1866,-0.1724,-0.1811,-0.1672,-0.1664,-0.1777,-0.178,-0.1742,-0.1742,-0.1743,-0.1743,-0.1743,0,-0.1113,-0.114,-0.1187,-0.126,-0.1279,-0.1329,-0.1411,-0.1458,-0.1541,-0.1637,-0.1717,-0.1788,-0.1817,-0.1873,-0.1853,-0.1912,-0.1902,-0.1888,-0.1884,-0.176,-0.1771,-0.1807,-0.1829,-0.183,-0.1832,-0.1833,-0.1834,0,-0.1119,-0.1159,-0.1209,-0.1264,-0.1289,-0.1364,-0.1409,-0.1489,-0.1577,-0.1664,-0.1713,-0.1802,-0.1861,-0.1928,-0.1929,-0.1942,-0.1912,-0.1962,-0.1894,-0.189,-0.1768,-0.176,-0.1982,-0.1851,-0.1849,-0.1848,-0.1846,0,-0.1134,-0.1207,-0.1221,-0.1252,-0.1335,-0.137,-0.1429,-0.1484,-0.1523,-0.1681,-0.1739,-0.1816,-0.1895,-0.1903,-0.1942,-0.1936,-0.193,-0.1992,-0.199,-0.1905,-0.1894,-0.1793,-0.1773,-0.1988,-0.1987,-0.1986,-0.1859,0,-0.1164,-0.1208,-0.1224,-0.1276,-0.1325,-0.1359,-0.1422,-0.1502,-0.1606,-0.167,-0.1774,-0.1841,-0.1915,-0.1943,-0.1967,-0.1972,-0.1981,-0.1998,-0.1949,-0.199,-0.1933,-0.1924,-0.2021,-0.2021,-0.202,-0.2019,0,0,-0.1155,-0.1192,-0.1245,-0.1272,-0.1308,-0.1368,-0.1395,-0.1443,-0.158,-0.1628,-0.1702,-0.1844,-0.1877,-0.1874,-0.1923,-0.1959,-0.196,-0.196,-0.1994,-0.1991,-0.1989,-0.1935,-0.1927,-0.2018,-0.2018,-0.2018,-0.2018,0,-0.1148,-0.1209,-0.1232,-0.127,-0.1331,-0.1353,-0.138,-0.1469,-0.1527,-0.1648,-0.1682,-0.1754,-0.188,-0.1867,-0.1871,-0.1953,-0.1923,-0.2007,-0.2009,-0.199,-0.1988,-0.1987,-0.1933,-0.1927,-0.2016,-0.2016,-0.2016,0,-0.1141,-0.1177,-0.1204,-0.1261,-0.1296,-0.132,-0.1355,-0.1413,-0.1453,-0.151,-0.1641,-0.1701,-0.1722,-0.1799,-0.1841,-0.1826,-0.1881,-0.1904,-0.1909,-0.1871,-0.1847,-0.1847,-0.1847,-0.1835,-0.1834,-0.1834,0,0,-0.1132,-0.1175,-0.1215,-0.1259,-0.1276,-0.1331,-0.1363,-0.1403,-0.1468,-0.1509,-0.1593,-0.1662,-0.1693,-0.1738,-0.1781,-0.1856,-0.1812,-0.188,-0.1888,-0.1895,-0.1862,-0.184,-0.1842,-0.1831,-0.1831,-0.1831,0,0,-0.1121,-0.1173,-0.1204,-0.1249,-0.1289,-0.1324,-0.1358,-0.1401,-0.1487,-0.1518,-0.1556,-0.1574,-0.1667,-0.1686,-0.1648,-0.1759,-0.1727,-0.1736,-0.174,-0.1751,-0.1759,-0.1703,-0.161,0,0,0,0,0,-0.1134,-0.116,-0.1189,-0.1202,-0.1276,-0.1309,-0.1321,-0.1372,-0.1413,-0.1441,-0.1524,-0.1508,-0.1675,-0.1641,-0.1653,-0.1679,-0.1794,-0.18,-0.1806,-0.1829,-0.184,-0.185,0,0,0,0,0,0,-0.1139,-0.1153,-0.1187,-0.1221,-0.1238,-0.1308,-0.1328,-0.1342,-0.141,-0.1419,-0.1496,-0.1508,-0.1519,-0.1634,-0.1645,-0.1669,-0.1606,-0.1796,-0.1802,-0.1807,-0.1833,-0.1842,-0.185,0,0,0,0,0,-0.1143,-0.1155,-0.1264,-0.1221,-0.1237,-0.1305,-0.1329,-0.1341,-0.141,-0.144,-0.1455,-0.1453,-0.1517,-0.1531,-0.1641,-0.1664,-0.1598,-0.1603,-0.18,-0.1804,-0.1808,-0.1837,0,0,0,0,0,0,-0.1146,-0.1166,-0.1268,-0.1275,-0.1229,-0.1304,-0.1318,-0.134,-0.1429,-0.1443,-0.1392,-0.1397,-0.1515,-0.1527,-0.1538,-0.1662,-0.1592,-0.1596,-0.1599,-0.1803,-0.1807,-0.181,0,0,0,0,0,0,-0.116,-0.1171,-0.1271,-0.1278,-0.1286,-0.1302,-0.1315,-0.1354,-0.143,-0.1377,-0.1383,-0.1393,-0.1506,-0.1523,-0.1532,-0.1591,-0.1587,-0.1591,-0.1594,-0.1596,-0.1806,-0.1809,0,0,0,0,0,0,-0.1166,-0.1175,-0.1277,-0.1283,-0.129,-0.1365,-0.1339,-0.1418,-0.142,-0.1372,-0.1423,-0.1425,-0.1502,-0.1511,-0.1528,-0.1582,-0.1589,-0.1587,-0.159,-0.1592,-0.1593,0,0,0,0,0,0,0,-0.117,-0.1095,-0.123,-0.1287,-0.1293,-0.1333,-0.1335,-0.1337,-0.142,-0.1422,-0.1423,-0.1424,-0.1564,-0.1569,-0.1573,-0.1576,0,0,-0.1587,-0.1589,0,0,0,0,0,0,0,0,-0.1093,-0.1095,-0.123,-0.1231,-0.1233,-0.1333,-0.1335,-0.1336,-0.1421,-0.1422,-0.1423,-0.1424,-0.1566,-0.1569,-0.1573,0,0,0,0,0,0,0,0,0,0,0,0,0,0,0,-0.123,-0.1231,0,-0.1333,-0.1335,-0.1336,-0.1421,-0.1422,-0.1422,-0.1423,-0.1567,-0.1569,-0.1572,0,0,0,0,0,0,0,0,0,0,0,0,0,0,0,0,0,0,0,0,0,0,0,0,0,0,0,0,0,0,0,0,0,0,0,0,0,0,0,0,0,0,0,0,0,0,0,0,0,0,0,0,0,0,0,0,0,0,0,0,0,0,0,0,0,0,0,0,0]}]]]